Regional Weather Roundup
Issued by NWS

Home | Current Version | Previous Version | Graphics & Text | Print | Product List | Glossary On
Versions: 1 2 3 4 5 6 7 8 9 10 11 12 13 14 15 16 17 18 19 20 21 22 23 24 25 26 27
000
ASUS45 KCYS 221310
RWRWY

WYOMING REGIONAL WEATHER ROUNDUP
NATIONAL WEATHER SERVICE CHEYENNE WY
700 AM MDT TUE APR 22 2014

NOTE:  "FAIR" INDICATES FEW OR NO CLOUDS BELOW 12,000 FEET
WITH NO SIGNIFICANT WEATHER AND/OR OBSTRUCTIONS TO VISIBILITY.

WYZ001-221400-
YELLOWSTONE NATIONAL PARK

CITY           SKY/WX    TMP DP  RH WIND       PRES   REMARKS
LK YELLOWSTONE   N/A     32  32 100 CALM      30.02F
W YELLOWSTONE  NOT AVBL

$$
WYZ002>013-054>058-071-098>099-221400-
NORTHERN WYOMING

CITY           SKY/WX    TMP DP  RH WIND       PRES   REMARKS
JACKSON        LGT RAIN  39  37  93 NW7       29.97S WCI  34
CODY           CLOUDY    54  34  47 N6        29.85F
GREYBULL       CLOUDY    47  33  58 NW5       29.82F
WORLAND        CLOUDY    41  32  70 E3        29.84R
SHERIDAN         N/A     34  28  80 CALM        N/A
BUFFALO        MOCLDY    47  26  44 CALM      29.85F
GILLETTE       CLOUDY    47  34  60 S15       29.88F
HULETT         PTSUNNY   46  32  57 CALM      29.88
NEWCASTLE      FAIR      50  30  46 SE6       29.91

$$
WYZ014>020-022>026-101>103-221400-
CENTRAL WYOMING

CITY           SKY/WX    TMP DP  RH WIND       PRES   REMARKS
BIG PINEY      CLOUDY    41  32  70 N6        29.97S
PINEDALE       CLOUDY    41  32  70 CALM      29.97S
DUBOIS         FAIR      41  28  60 NW12      29.92S
LANDER         PTCLDY    44  24  45 SW5       29.86F
RIVERTON       PTCLDY    38  23  55 MISG      29.88F
CASPER         CLOUDY    37  31  78 NE3       29.89F
DOUGLAS        CLOUDY    41  35  79 SE6       29.93S

$$
WYZ021-027>030-104>119-221400-
SOUTHERN WYOMING

CITY           SKY/WX    TMP DP  RH WIND       PRES   REMARKS
EVANSTON         N/A     52  28  39 W3        29.95F
KEMMERER       CLOUDY    45  32  61 NW3       29.96F
FORT BRIDGER   FAIR      49  29  46 NW5       29.98S
ROCK SPRINGS   CLOUDY    54  28  36 S14       29.94F
DIXON          FAIR      44  31  60 CALM      30.03R
RAWLINS        CLOUDY    50  26  39 CALM      29.98F
SARATOGA       FAIR      45  27  49 S13G21    30.02S
LARAMIE        MOCLDY    39  27  62 S9        30.04F WCI  33
CHEYENNE       CLOUDY    43  33  68 CALM      30.02F
TORRINGTON     MOCLDY    45  32  60 E10       29.94F
PINE BLUFFS    FAIR      41  34  75 S5        30.01S

$$



USA.gov is the U.S. government's official web portal to all federal, state and local government web resources and services.